Temp
11 12 11 12 13 12 12 13 13 13 11 10 9 9 9 9 8 9 9 8 7 7 7 7 8 9 8 7 6 5 6 5 3 1 1 -0 -1 -1 -2 -2 -3 -3 -4
11 11 10 10 11 11 11 14 14 13 12 11 10 9 9 8 8 8 8 8 7 7 7 7 8 9 8 8 6 5 6 5 3 -1 -2 -2 -1 -1 -1 -2 -3 -3 -4
10 10 10 9 9 9 9 10 12 11 9 9 9 9 8 8 8 8 8 8 7 7 7 7 7 8 7 5 5 5 5 4 2 -0 -1 -2 -2 -1 -2 -2 -3 -4 -4
9 9 8 7 7 7 8 9 9 8 8 8 8 8 8 7 7 7 7 7 7 7 7 8 8 8 7 5 4 5 4 3 1 0 -2 -2 -3 -3 -2 -3 -4 -4 -5
8 8 7 7 7 7 7 6 6 6 7 7 7 7 7 7 6 6 6 6 6 6 7 7 7 7 7 6 5 4 4 3 1 -1 -1 -2 -3 -4 -4 -4 -4 -4 -5
6 6 5 5 5 5 5 5 5 5 5 6 6 6 5 5 6 6 7 6 6 6 6 6 6 7 7 8 7 8 6 3 -0 -0 -1 -1 -2 -3 -4 -4 -4 -5 -5
5 5 4 3 2 2 3 3 4 4 5 4 4 4 4 5 5 6 6 5 4 4 4 4 4 5 6 6 6 6 5 5 7 4 -0 -1 -2 -2 -2 -4 -4 -4 -3
3 2 1 1 1 1 1 2 2 3 3 3 3 3 3 2 3 4 4 3 2 2 4 4 5 4 4 4 5 2 1 1 2 2 2 -0 -0 -1 0 -0 -2 -3 -3
1 0 0 0 -0 -0 -0 -0 0 1 1 1 2 1 1 1 2 3 2 1 2 1 2 4 5 4 3 4 2 -0 -0 0 1 2 2 1 1 0 0 -0 -3 -3 -5
1 -0 -0 -1 -1 -1 -1 -1 -1 -1 -1 -1 -0 -0 0 0 3 3 3 2 0 -0 0 1 3 3 3 3 2 1 -1 -1 0 -1 -1 -1 -0 -0 -0 -0 -1 -3 -4
0 -1 -1 -1 -1 -1 -1 -1 -1 -1 -1 -1 -1 -1 -0 -0 0 -0 -0 -0 -1 -2 -1 -1 -0 1 0 2 4 3 3 -1 -2 -1 -2 -2 -2 -2 -2 -2 -1 -2 -3
0 -1 -1 -1 -1 -1 -1 -1 -1 -1 -1 -2 -2 -2 -2 -1 -1 -0 -0 -0 -0 -1 -2 -2 -2 -1 1 2 3 3 1 -1 -2 -2 -3 -3 -3 -3 -3 -3 -3 -3 -3
-0 -1 -1 -1 -1 -1 -1 -1 -1 -1 -2 -2 -2 -2 -2 -2 -1 -1 -1 -1 -2 -2 -2 -2 -2 -2 -0 1 2 -0 -0 -1 -2 -4 -4 -4 -3 -4 -4 -4 -4 -4 -4
-0 -1 -1 -1 -1 -1 -1 -1 -1 -2 -2 -2 -2 -2 -2 -2 -2 -2 -3 -2 -2 -2 -3 -4 -4 -2 -1 -2 -3 -2 -1 -2 -3 -4 -5 -5 -5 -5 -5 -4 -5 -5 -5
1 -0 -1 -1 -1 -1 -1 -1 -1 -2 -2 -2 -2 -2 -2 -2 -3 -2 -2 -3 -4 -4 -4 -5 -4 -4 -6 -6 -6 -4 -4 -4 -4 -4 -5 -6 -6 -6 -6 -6 -6 -6 -6
1 -0 -1 -1 -1 -1 -1 -1 -1 -1 -2 -2 -2 -2 -2 -2 -2 -2 -2 -3 -3 -4 -5 -5 -6 -6 -7 -8 -7 -6 -6 -5 -5 -5 -6 -6 -7 -7 -7 -8 -7 -7 -7
0 1 -0 -1 -1 -1 -1 -1 -2 -2 -1 -1 -1 -2 -1 -2 -2 -3 -2 -3 -3 -4 -5 -6 -6 -7 -7 -7 -7 -7 -7 -6 -5 -5 -6 -7 -7 -8 -8 -8 -8 -8 -8
-2 -1 0 -0 -1 -1 -1 -1 -2 -2 -2 -3 -2 -2 -2 -2 -3 -3 -3 -4 -5 -5 -5 -6 -7 -6 -7 -7 -7 -7 -7 -6 -6 -6 -7 -7 -7 -8 -8 -8 -8 -8 -8
-1 -0 -0 -0 -1 -1 -1 -1 -1 -1 -2 -3 -3 -3 -3 -3 -3 -2 -2 -4 -5 -6 -6 -6 -7 -6 -6 -6 -7 -6 -6 -6 -6 -6 -7 -7 -7 -7 -8 -8 -8 -8 -8
-1 -1 -1 -1 -1 -1 -1 -1 -1 -1 -2 -3 -3 -3 -3 -3 -4 -4 -4 -5 -6 -6 -6 -6 -6 -6 -6 -6 -6 -6 -6 -6 -6 -6 -6 -7 -7 -7 -8 -8 -8 -8 -8
-2 -2 -1 -1 -1 -1 -1 -1 -1 -1 -2 -2 -3 -3 -4 -3 -3 -4 -5 -5 -5 -6 -6 -6 -6 -6 -6 -6 -6 -6 -6 -6 -6 -6 -6 -7 -7 -8 -7 -7 -8 -8 -8
-2 -2 -2 -1 -2 -1 -1 -1 -1 -1 -2 -2 -3 -4 -3 -3 -4 -4 -5 -5 -5 -6 -6 -6 -6 -5 -5 -5 -5 -5 -6 -6 -6 -6 -6 -7 -7 -7 -7 -7 -8 -8 -8
-2 -2 -2 -2 -1 -1 -1 -1 -2 -2 -2 -3 -3 -4 -4 -4 -4 -5 -5 -5 -6 -5 -5 -5 -5 -5 -5 -4 -4 -4 -5 -5 -5 -6 -6 -7 -7 -7 -7 -7 -7 -8 -8
-2 -2 -2 -1 -1 -2 -2 -2 -2 -2 -2 -3 -4 -4 -4 -4 -5 -5 -5 -5 -5 -5 -5 -4 -4 -4 -4 -4 -4 -4 -4 -4 -4 -5 -5 -6 -7 -7 -7 -7 -7 -8 -8
-2 -2 -1 -1 -2 -2 -2 -2 -2 -2 -3 -3 -4 -4 -4 -4 -5 -5 -5 -5 -6 -5 -4 -4 -3 -3 -3 -4 -4 -4 -4 -4 -4 -4 -5 -6 -6 -6 -7 -7 -7 -7 -8
-3 -2 -1 -1 -1 -1 -2 -2 -2 -2 -3 -3 -3 -4 -4 -4 -5 -5 -5 -5 -5 -5 -4 -4 -3 -3 -3 -3 -3 -4 -4 -4 -4 -4 -5 -5 -6 -6 -7 -7 -7 -8 -7
Height
689 683 681 680 680 679 680 682 684 688 691 695 697 699 702 707 713 721 728 734 737 742 757 764 770 778 784 793 798 805 808 813 821 834 843 851 857 862 868 875 876 880 881
685 681 679 676 675 675 676 676 678 680 683 687 689 693 697 701 705 709 716 723 733 738 751 754 763 775 779 788 797 801 802 812 815 828 843 851 856 863 866 871 876 880 880
682 679 677 676 676 674 673 673 673 673 676 678 681 684 690 692 697 700 707 714 721 730 738 746 754 763 775 782 790 797 802 813 821 825 838 849 857 861 867 871 875 879 881
680 678 676 676 675 674 674 673 671 671 671 671 674 675 680 684 688 693 699 705 711 719 728 737 748 757 767 778 784 792 797 811 820 830 835 844 852 859 863 865 872 877 881
677 676 674 671 669 669 669 667 665 665 664 666 669 670 673 677 681 686 694 698 705 714 722 733 744 755 762 771 779 789 794 803 816 825 832 838 848 854 856 860 866 873 879
677 673 670 668 666 665 663 662 662 660 660 661 662 665 669 672 675 681 688 696 702 711 719 732 743 752 758 765 777 782 790 797 809 819 824 832 838 845 854 857 863 869 879
674 669 667 665 663 661 659 657 654 654 654 654 657 661 666 668 672 676 684 691 699 705 715 727 739 745 754 764 772 781 790 797 796 804 814 825 831 835 845 853 859 866 869
673 670 667 664 662 659 657 654 651 649 650 651 656 660 662 666 668 674 680 687 697 705 712 722 733 743 753 761 765 784 790 796 799 805 812 820 824 833 841 845 856 864 868
674 671 668 666 663 660 658 656 653 652 652 653 657 660 664 669 671 675 681 690 697 706 715 724 733 741 747 758 769 784 789 796 802 808 814 821 828 834 838 846 856 861 867
673 670 668 666 663 660 658 658 657 656 657 658 660 664 666 670 674 679 686 694 704 712 720 726 734 742 751 759 770 779 787 794 798 807 815 822 831 837 838 845 851 857 861
672 670 669 666 664 662 661 661 660 661 662 664 665 669 671 675 680 687 692 699 705 713 721 730 739 746 757 763 770 778 781 788 799 807 814 823 829 833 837 844 850 854 858
673 671 669 668 667 666 664 665 665 665 667 669 672 676 679 683 687 692 697 702 709 716 726 735 744 753 760 766 771 776 781 792 799 808 816 822 826 830 838 842 848 855 858
674 672 671 670 670 670 668 668 669 670 672 675 677 681 686 690 694 699 703 708 715 722 731 739 747 756 764 769 774 780 784 792 799 808 815 820 825 830 836 841 848 852 854
674 673 672 672 671 671 671 670 672 673 674 677 681 685 689 694 698 703 708 714 720 728 738 746 753 760 766 771 776 782 787 794 801 805 812 819 824 831 835 840 845 849 853
674 673 672 671 672 672 673 672 673 675 676 677 681 685 689 696 701 704 710 718 725 733 741 749 756 761 767 772 778 785 792 798 801 806 811 817 823 829 836 841 844 846 852
674 672 671 670 671 671 673 674 675 677 679 682 684 688 694 698 703 710 716 722 730 738 744 748 754 760 767 773 781 788 794 797 800 805 811 816 823 829 834 839 844 848 853
673 670 668 668 668 669 671 673 675 680 682 685 688 692 696 701 707 713 719 726 733 738 742 749 755 762 768 776 781 786 790 794 799 805 811 818 825 828 832 838 844 849 853
670 667 665 663 664 665 667 671 674 678 683 687 691 694 699 704 710 716 722 729 737 742 745 749 755 760 766 772 778 782 786 792 798 806 812 818 821 826 832 837 842 847 851
666 661 657 657 658 661 664 667 671 676 681 686 692 698 702 707 712 717 722 726 732 738 743 748 752 758 764 769 775 780 785 792 798 804 810 814 819 824 830 836 841 845 848
664 660 657 656 657 659 662 664 668 673 678 684 690 694 701 708 713 717 722 725 731 736 741 745 750 755 761 767 773 779 785 791 797 803 807 812 817 823 829 834 838 841 844
663 660 657 656 657 658 660 662 665 669 674 679 685 690 695 701 708 714 718 723 728 733 738 743 748 754 759 765 772 778 783 788 794 799 804 810 816 821 827 831 835 838 843
663 659 657 656 657 657 658 660 663 666 671 676 682 688 693 699 704 709 714 720 725 730 735 740 744 750 755 761 766 773 778 784 790 796 801 807 813 818 823 827 831 835 839
662 658 656 655 655 656 657 659 662 665 669 673 678 684 691 696 700 705 710 716 722 728 733 738 742 747 752 758 763 768 772 778 784 791 797 803 809 814 819 822 826 831 834
661 657 655 654 654 654 656 658 661 663 667 671 675 680 686 692 697 702 708 713 720 726 730 735 739 744 749 755 760 766 771 777 782 787 794 799 804 810 815 819 822 826 830
661 657 655 653 653 653 654 656 659 663 666 669 674 679 683 688 694 699 704 711 716 722 727 732 737 742 748 752 756 762 768 774 780 785 790 795 800 805 810 814 818 821 824
660 657 655 653 652 652 653 655 658 661 664 667 671 675 680 685 690 696 701 708 712 718 723 729 735 739 744 749 754 760 766 771 776 781 786 791 796 800 805 808 812 815 818
Wind_Speed
18 17 16 27 33 35 34 35 33 33 33 35 36 39 41 42 41 43 37 34 38 38 34 33 33 31 35 36 35 29 26 18 17 21 26 38 33 29 25 20 18 17 15
18 18 15 11 22 30 34 35 34 36 35 35 37 35 35 36 41 44 40 39 38 38 38 34 34 33 37 38 36 32 33 23 29 28 26 32 34 29 27 23 20 16 14
16 15 16 13 15 22 27 33 34 33 33 31 34 37 37 39 43 45 43 40 40 39 42 40 39 37 36 35 35 32 31 22 27 26 24 28 31 31 29 23 20 18 14
16 18 15 14 14 18 22 25 27 28 32 30 33 37 40 41 40 39 38 36 38 44 45 45 44 40 38 39 35 36 33 30 27 27 31 30 31 33 32 31 25 21 18
14 16 19 21 21 20 21 23 26 29 29 31 32 39 42 43 41 39 39 44 43 44 43 39 39 43 47 49 41 37 39 34 31 29 28 28 25 30 29 28 29 25 21
14 16 16 17 20 23 25 26 27 28 29 32 33 38 37 34 42 46 44 41 42 41 39 38 45 43 39 41 43 35 43 40 32 27 24 29 30 31 28 33 31 24 10
14 17 17 18 18 19 23 26 27 26 29 29 31 33 33 33 42 47 47 43 40 41 43 43 40 41 37 36 39 34 38 43 41 47 37 35 33 42 38 34 31 27 12
14 14 16 16 15 12 10 12 15 19 22 24 23 23 29 31 44 47 45 41 38 39 47 45 43 38 39 33 27 32 36 36 36 36 39 37 36 42 41 37 34 24 12
13 12 14 12 11 7 5 5 8 15 17 21 25 27 28 32 45 47 41 35 36 34 38 41 39 35 30 28 36 36 33 29 28 31 30 33 31 40 38 32 31 26 9
9 9 10 9 6 3 3 7 10 14 17 21 23 25 30 33 37 33 31 31 31 31 31 32 32 33 35 41 45 41 36 31 29 26 27 28 29 33 30 29 33 25 14
8 7 7 6 4 5 6 10 14 17 20 20 23 25 30 32 32 36 37 34 33 30 30 30 33 38 43 45 44 42 39 35 33 32 32 31 31 29 26 24 25 27 22
5 5 3 4 5 8 10 11 16 20 18 18 20 19 23 28 30 32 34 34 36 35 30 30 37 42 41 42 41 38 38 37 35 35 34 32 31 28 24 22 22 21 17
3 2 1 6 8 11 14 14 13 17 16 15 17 18 19 25 25 25 28 33 33 32 33 35 36 38 39 36 34 35 39 37 37 37 36 32 29 26 24 22 19 16 13
3 2 4 8 11 12 14 17 14 14 16 16 16 17 19 22 26 26 28 30 30 31 31 35 35 34 32 32 33 38 36 37 39 38 35 30 27 25 24 23 22 19 18
5 6 8 10 13 14 15 14 16 16 20 20 19 23 23 19 22 29 31 30 28 30 34 34 33 31 31 30 31 34 34 33 33 32 33 31 28 26 24 22 22 22 15
14 10 12 13 15 15 15 11 12 17 19 23 28 29 22 23 30 32 32 31 32 40 32 29 24 26 24 26 30 30 31 31 30 32 32 31 31 29 27 23 22 19 21
16 18 15 17 16 16 16 15 11 16 19 23 28 30 32 30 30 31 30 32 37 37 28 24 26 26 26 28 29 30 29 29 29 29 31 31 31 29 27 24 22 19 19
20 20 19 19 19 18 19 19 18 18 16 18 22 28 31 32 32 34 35 35 26 22 26 29 29 31 30 29 27 28 30 28 28 30 30 30 29 29 27 26 24 23 21
22 21 20 19 20 20 19 21 22 20 20 20 21 24 30 35 37 38 37 35 28 26 27 25 29 32 31 30 28 30 31 31 31 31 29 29 29 28 28 28 27 23 21
19 20 12 15 16 18 18 19 21 21 22 22 22 25 30 33 32 33 28 29 27 26 28 28 30 32 32 32 32 33 33 32 30 30 28 28 28 28 28 28 26 24 23
18 16 12 11 13 15 17 18 21 22 22 23 23 28 34 32 29 29 25 26 27 27 29 29 30 33 35 34 34 33 33 32 31 31 28 29 29 30 27 26 24 24 22
18 15 11 11 10 13 15 17 19 22 22 22 23 29 36 28 27 27 26 27 27 27 31 32 33 36 37 37 35 34 34 34 33 31 30 30 31 30 27 26 25 26 24
19 16 11 12 14 14 14 17 18 21 23 24 26 28 31 26 26 26 28 30 31 30 30 32 32 32 32 33 32 33 35 35 34 34 34 32 32 32 29 28 27 26 26
19 15 12 9 12 14 15 16 17 20 22 24 26 28 28 27 27 27 27 29 31 31 30 31 29 29 31 31 30 30 29 28 28 29 30 33 33 31 31 31 29 28 26
19 15 12 10 11 12 14 16 18 20 21 23 24 26 27 28 28 29 29 25 29 34 30 30 29 29 29 31 31 28 26 26 25 26 29 30 31 31 31 31 29 28 28
20 16 13 12 13 13 14 15 17 19 20 22 24 26 27 28 28 30 30 27 26 32 34 30 30 28 28 29 29 28 26 24 26 27 28 30 31 31 31 30 28 28 27
Wind_Direction
318 325 287 256 252 249 241 245 243 241 234 224 217 213 208 205 202 199 201 198 190 190 197 191 191 196 191 188 178 178 174 160 144 141 166 173 171 166 161 158 159 156 147
325 314 308 267 248 247 248 245 241 239 237 233 222 213 210 206 202 199 198 194 192 187 188 182 189 195 193 191 181 175 173 172 146 140 155 163 170 171 165 163 159 161 148
314 316 309 291 259 251 250 248 240 238 237 232 223 212 209 202 200 200 197 192 189 187 183 182 188 190 182 177 174 172 171 165 151 152 155 159 163 171 167 164 163 158 153
308 311 310 302 287 266 260 254 252 248 244 239 225 214 206 202 198 196 193 186 180 181 180 187 188 189 187 180 171 173 163 162 154 151 150 153 162 174 174 163 163 166 159
311 302 300 301 299 290 279 276 269 255 248 244 230 214 204 199 191 185 182 178 176 180 182 185 190 197 192 187 177 169 171 164 161 157 158 157 166 169 173 171 165 168 173
308 304 303 303 300 297 289 276 261 242 228 225 210 204 193 194 192 192 193 184 180 179 174 184 179 178 182 183 188 189 185 173 163 164 164 171 175 175 176 171 167 163 178
320 322 318 314 312 301 288 272 249 230 214 205 196 189 189 189 191 198 190 174 164 163 163 163 162 165 165 174 181 185 192 202 203 186 172 181 173 182 178 173 173 172 170
319 316 314 318 311 298 277 237 219 205 194 183 177 175 171 171 173 171 164 156 155 157 163 165 168 162 167 167 165 180 178 182 182 183 187 180 182 181 188 183 182 175 173
314 315 317 313 299 292 251 200 172 165 157 158 162 158 155 154 159 161 149 142 147 149 156 164 169 170 174 184 169 165 169 172 181 191 191 188 186 185 185 179 176 170 145
322 329 320 309 293 264 200 162 149 145 139 143 142 145 145 146 164 159 161 154 146 147 158 160 171 171 176 179 177 166 153 158 162 163 166 170 176 178 183 195 189 171 151
341 345 322 310 270 214 181 160 142 131 127 124 125 136 141 145 151 153 157 150 147 137 140 147 161 171 176 180 179 174 171 163 163 161 160 162 168 171 176 187 195 198 177
359 354 314 269 208 184 170 154 145 137 125 120 119 116 133 145 156 166 165 163 161 151 147 150 160 167 172 177 174 175 169 162 159 158 156 156 159 162 169 180 189 197 211
28 352 235 217 203 191 173 157 143 139 130 129 128 125 123 135 147 156 163 161 156 149 153 160 161 169 175 174 175 169 162 163 162 158 159 157 161 161 163 163 166 171 167
360 218 204 203 194 189 185 172 157 154 143 139 136 134 134 134 139 145 147 153 163 162 150 147 153 165 167 160 156 160 166 170 170 164 161 157 158 162 164 170 163 158 150
274 225 213 206 193 185 183 182 177 172 164 152 150 148 145 140 148 155 156 154 151 145 144 145 151 151 144 150 156 163 168 170 168 166 161 159 158 161 162 166 162 156 157
270 247 220 206 194 182 178 170 185 179 171 169 167 160 153 152 161 164 167 163 160 159 149 146 141 143 146 152 157 163 169 170 169 166 165 164 165 165 159 162 166 163 162
297 266 234 213 199 185 175 165 138 160 180 184 179 175 174 165 168 171 176 175 172 164 149 152 153 156 156 161 164 165 163 174 172 170 171 172 172 168 165 166 170 168 172
308 297 253 218 206 195 182 176 162 157 153 158 182 177 181 176 174 175 176 162 153 165 162 162 162 165 164 163 165 165 167 171 174 177 177 179 176 175 174 176 179 179 174
312 304 260 226 209 199 186 175 170 162 156 155 159 171 174 174 173 177 180 167 165 168 171 169 172 171 169 170 171 175 177 179 181 181 183 183 182 181 184 188 187 188 184
324 324 260 220 202 193 184 176 171 167 161 160 166 165 165 162 162 166 173 172 170 173 175 177 181 179 178 181 185 184 184 184 184 186 187 188 188 191 191 190 189 187 191
320 314 276 227 198 190 185 181 176 173 168 168 170 171 172 173 175 174 172 172 174 179 181 183 184 188 191 192 194 190 190 191 190 191 191 192 192 195 198 196 195 197 198
318 305 261 226 215 197 187 183 175 171 168 163 160 170 173 174 174 175 174 179 183 188 191 191 192 197 198 199 199 196 195 195 197 198 196 197 197 200 201 202 206 207 210
321 301 265 228 211 200 190 175 168 165 163 164 163 165 172 175 174 173 174 183 188 192 194 196 195 195 197 200 202 200 198 200 203 201 199 200 201 203 205 206 207 210 215
326 298 267 235 206 189 178 171 169 167 164 165 165 168 172 175 178 177 179 190 195 193 198 199 201 200 198 199 199 201 203 203 202 202 204 203 205 208 209 211 212 217 222
325 314 264 240 204 188 177 172 171 170 168 168 170 172 173 174 176 180 185 190 196 196 196 201 204 204 203 201 200 202 206 207 208 207 208 209 209 210 212 214 216 220 226
328 317 294 254 220 199 185 177 177 176 175 175 174 176 176 177 180 184 186 189 192 194 198 201 204 204 202 202 206 211 213 213 214 214 212 212 212 213 215 218 220 223 228